Weather Roundup
Issued by NWS Chicago, IL

Home | Current Version | Previous Version | Graphics & Text | Print | Product List | Glossary On
Versions: 1 2 3 4 5 6 7 8 9 10 11 12 13 14 15 16 17 18 19 20 21 22 23 24 25 26 27 28 29 30 31 32 33 34 35 36 37 38 39 40 41 42 43 44 45 46 47 48 49 50
000
NZUS59 KLOT 221606
HRRLOT

CHICAGO AREA WEATHER ROUNDUP
NATIONAL WEATHER SERVICE CHICAGO/ROMEOVILLE IL
1100 AM CDT MON SEP 22 2014

NOTE: "FAIR" INDICATES FEW OR NO CLOUDS BELOW 12,000 FEET WITH NO
SIGNIFICANT WEATHER AND/OR OBSTRUCTIONS TO VISIBILITY.

* THESE STATIONS ARE NOT UNDER NWS QUALITY CONTROL. THEY ALSO MAY NOT
  REPORT WEATHER SUCH AS PRECIPITATION OR FOG.

ILZ005-006-012>014-019>023-221700-
NORTHEAST ILLINOIS

CITY           SKY/WX    TMP DP  RH WIND       PRES   REMARKS
OHARE          MOSUNNY   54  42  64 CALM      30.29S
MIDWAY         MOSUNNY   61  47  59 NE5       30.29S
AURORA         SUNNY     59  42  53 VRB5      30.31R
LANSING*       MOSUNNY   58  45  60 N7        30.29S
JOLIET*        SUNNY     57  42  58 CALM      30.31S
WAUKEGAN       SUNNY     57  41  55 NW5       30.28S
DUPAGE AIRPORT SUNNY     59  42  53 VRB3      30.30R
WHEELING       SUNNY     60  40  47 CALM      30.31R
KANKAKEE*      SUNNY     58  46  63 NE3       30.30F
MORRIS*        SUNNY     59  45  59 CALM      30.30S
LEWIS AIRPORT* SUNNY     58  42  56 W5        30.30S
NORTHERLY IS     N/A     57  45  64 N5          N/A
$$

WIZ051-052-058>065-066-070>072-221700-
SOUTHEAST WISCONSIN

CITY           SKY/WX    TMP DP  RH WIND       PRES   REMARKS
MILWAUKEE      SUNNY     59  41  51 W7        30.28S
KENOSHA*       SUNNY     57  44  62 W7        30.29S
RACINE*        SUNNY     57  43  59 NW7       30.30R
BURLINGTON     SUNNY     57  42  56 W8        30.28S
WEST BEND      SUNNY     59  41  51 W12       30.26S
$$

INZ001>003-010>013-019-020-221700-
NORTHWEST INDIANA

CITY           SKY/WX    TMP DP  RH WIND       PRES   REMARKS
GARY*          MOSUNNY   59  45  58 N7        30.30R
MICHIGAN CITY* NOT AVBL
RENSSELAER*    NOT AVBL
VALPARAISO     MOSUNNY   59  44  57 N10       30.29S
$$

LMZ740>746-221700-
SOUTHERN LAKE MICHIGAN

STATION/POSITION TIME  SKY/WX   TEMP WIND        PRES    VSBY
                                AIR  DIR/SP/G
                 (UTC)          (F)  (DEG/KT/KT) (MB)    (MI)
HARRISON CRIB    1600            53  330/  7/  9   N/A
BURNHAM HARBOR   1600            56   40/  7/  8   N/A
CALUMET HARBOR   1600            56  330/  6/ 11 1024.5S
BURNS HARBOR     NOT AVBL
MICHIGAN CITY    1600            56  310/  1/  3   N/A
$$

ABBREVIATIONS USED IN REMARKS
   TC - TEMPERATURE IN CELSIUS
  WCI - WIND CHILL INDEX
   HX - HEAT INDEX
  VSB - VISIBILITY
$$


USA.gov is the U.S. government's official web portal to all federal, state and local government web resources and services.